User: anonymous   Login
Location: Mason Neck State Park
(38.6428°N, 77.1981°W)
Time: 21:29:38
(UTC-04:00)
Language:

Cosmos 1400 Rocket - Orbit

View from above orbital plane
View from above orbital plane
View from above satellite
View from above satellite

Ground track
Ground track

The orbit data is extracted from the following two-line orbital elements,

1 13403U 82079B   16236.55533476 -.00000110  00000-0 -90379-5 0  9990
2 13403  81.1669 250.1677 0034495 176.3330 183.8153 15.06280910851915
Epoch (UTC): 23 August 2016 13:19:40
Eccentricity: 0.0034495
inclination: 81.1669°
perigee height: 523 km
apogee height: 571 km
right ascension of ascending node: 250.1677°
argument of perigee: 176.3330°
revolutions per day: 15.06280910
mean anomaly at epoch: 183.8153°
orbit number at epoch: 85191

The dashed part of the orbit path shows where the satellite is in the earth's shadow,  

DLR